星链-4002 (STARLINK-4002 )

导读

STARLINK-4002是美国太空探索技术公司星链(Starlink)卫星互联网项目的卫星,2022年5月14日发射入轨,旨在为全球用户提供高速低延迟的宽带互联网服务,尤其覆盖偏远地区。它属于低轨卫星星座组成部分,服役后助力星链网络覆盖能力提升,服务于消费及特种通信领域。

Basic Information
目录编号:
52612
目录名称:
STARLINK-4002
国际标识:
2022-052Q
轨道中心:
EARTH
卫星名称:
星链-4002
卫星全名:
星链-4002 (STARLINK-4002 )
卫星状态:
在轨 (已飞行1495 天)
发射日期:
2022-05-14 UTC
国别 :
美国 (US)
星等 :
--
Orbit Information
数据来源 国际轨道数据 AOE轨道数据
星历时间 2026-06-17T03:15:34+0800
19小时前
查看轨道信息
2026-06-17T02:00:00+0800
20小时前
查看轨道信息
半长轴 6917.899km 6917.879km
偏心率 0.0001226 0.0001187
轨道倾角 53.159° 53.156°
近地点辐角 86.379° 77.981°
升交点赤经 194.093° 194.331°
平近点角 273.734° 356.940°
近地点 538.913km 538.92km
远地点 540.611km 540.564km
周期 95.438分钟 95.438分钟
每日圈数 15.088342 15.088407
Detailed Information
固有亮度:
5
最大亮度:
2.5
卫星平台:
Starlink v1.5
覆盖范围:
全球
运营商:
太空探索技术公司
运营商所在国:
美国
制造商(研发单位):
太空探索技术公司
制造商所在国:
美国
使用方式:
暂无
Satellite Introduction
星链(Starlink)计划是由太空探索技术公司(SpaceX)提出的一个巨型低轨卫星互联网星座项目,计划在2019年至2024年间在太空搭建由约1.2万颗卫星组成的“星链”网络,其中1584颗将部署在地球上空550千米处的近地轨道,并从2020年开始工作。该卫星仍在工作。
2D Orbit Map
3D Orbit Map
Orbit Altitude Analysis Chart
Orbit Inclination Analysis Chart
Orbit Comprehensive Analysis Chart
View Comprehensive Chart